[[[{"header":{"parameterUnit":"kt","parameterCategory":2,"dx":1,"dy":1,"la1":30.253999710083008,"la2":30.299108505249023,"lo1":-89.0895004272461,"lo2":-89.04439544677734,"nx":28,"ny":28,"refTime":"2022-10-23T21:00:00:Z","depth":0,"parameterNumber":1,"parameterNumberName":"U-component_of_WINDS"},"data":[-7.6076,-7.6339,-7.6456,-7.6807,-7.697,-7.7228,-7.7356,-7.7532,-7.77,-7.8015,-7.8215,-7.8352,-7.8558,-7.8818,-7.9035,-7.9089,-7.917,-7.9183,-7.9242,-7.9096,-7.9082,-7.9069,-7.9016,-7.92,-7.92,-7.9377,-7.9378,-7.9379,-7.5963,-7.6129,-7.635,-7.664,-7.6829,-7.689,-7.7122,-7.7273,-7.7499,-7.7708,-7.7911,-7.8194,-7.8429,-7.8634,-7.8877,-7.8995,-7.9032,-7.9052,-7.9042,-7.9072,-7.8921,-7.8864,-7.9019,-7.9019,-7.9019,-7.9019,-7.9019,-7.9019,-7.5787,-7.594,-7.6184,-7.6424,-7.6602,-7.6794,-7.6957,-7.7125,-7.7336,-7.761,-7.7701,-7.7955,-7.8179,-7.8524,-7.8664,-7.8862,-7.8857,-7.8911,-7.8924,-7.8933,-7.8929,-7.8656,-7.8908,-7.8908,-7.8908,-7.8908,-7.8908,0,-7.5691,-7.5779,-7.5997,-7.6251,-7.6431,-7.6636,-7.6842,-7.6946,-7.7159,-7.7324,-7.7571,-7.773,-7.8043,-7.8282,-7.8532,-7.8668,-7.8735,-7.8755,-7.8792,-7.8748,-7.868,-7.8716,-7.846,-7.8744,-7.8743,-7.8742,-7.8742,-7.8741,-7.5518,-7.5683,-7.5993,-7.613,-7.6272,-7.649,-7.6642,-7.6819,-7.697,-7.7245,-7.7367,-7.7612,-7.7816,-7.8185,-7.8367,-7.8597,-7.8629,-7.8726,-7.8663,-7.8619,-7.8626,-7.8613,-7.8629,-7.8731,-7.8732,-7.8733,-7.8734,0,-7.5408,-7.5596,-7.5887,-7.6175,-7.6253,-7.6414,-7.6657,-7.6814,-7.6957,-7.719,-7.7255,-7.7475,-7.771,-7.7879,-7.8178,-7.8257,-7.8516,-7.8545,-7.8441,-7.8454,-7.8554,-7.854,-7.8858,-7.8907,-7.8723,-7.8724,-7.8726,0,-7.533,-7.5538,-7.5804,-7.5963,-7.62,-7.6373,-7.6601,-7.6746,-7.6945,-7.713,-7.724,-7.741,-7.7599,-7.7793,-7.7911,-7.8152,-7.8209,-7.8282,-7.8309,-7.827,-7.826,-7.8343,-7.8331,-7.8371,-7.8369,-7.8367,-7.8366,0,-7.5134,-7.5521,-7.5782,-7.5899,-7.6223,-7.6339,-7.6478,-7.6701,-7.6846,-7.706,-7.7155,-7.739,-7.7516,-7.7694,-7.7843,-7.7794,-7.8144,-7.8107,-7.8217,-7.8213,-7.8279,-7.8272,-7.8518,-7.8364,-7.8363,-7.8363,-7.8362,0,-7.5096,-7.5319,-7.5669,-7.5941,-7.6034,-7.6204,-7.6451,-7.6636,-7.6861,-7.6949,-7.7118,-7.7207,-7.7435,-7.7387,-7.7702,-7.7596,-7.7713,-7.7805,-7.7816,-7.784,-7.7779,-7.7889,-7.8112,-7.8139,-7.7871,-7.7867,-7.7864,0,-7.482,-7.5223,-7.5375,-7.5701,-7.591,-7.6022,-7.6213,-7.6409,-7.6543,-7.6735,-7.6879,-7.7094,-7.7094,-7.7183,-7.7319,-7.7472,-7.761,-7.7459,-7.7721,-7.7728,-7.7655,-7.7864,-7.7852,-7.8046,-7.7814,-7.7819,-7.7823,0,-7.4627,-7.5023,-7.507,-7.521,-7.5503,-7.5676,-7.5896,-7.615,-7.627,-7.6478,-7.6662,-7.697,-7.6981,-7.7127,-7.7222,-7.7353,-7.7521,-7.7345,-7.7353,-7.7367,-7.7804,-7.7792,-7.7824,-7.7556,-7.7562,-7.7567,-7.7783,0,-7.4522,-7.4747,-7.4886,-7.5188,-7.5351,-7.5564,-7.5749,-7.5894,-7.5974,-7.6107,-7.6381,-7.6582,-7.6831,-7.6913,-7.6988,-7.7236,-7.7219,-7.7227,-7.7185,-7.7322,-7.7397,-7.7428,-7.7059,-7.7059,-7.7059,-7.7058,0,0,-7.4207,-7.4534,-7.469,-7.4912,-7.5057,-7.5167,-7.5378,-7.5531,-7.5835,-7.5931,-7.5913,-7.6371,-7.6532,-7.6843,-7.69,-7.7002,-7.706,-7.7004,-7.7257,-7.7278,-7.7298,-7.7375,-7.7405,-7.7058,-7.7058,-7.7058,-7.7058,0,-7.4206,-7.4382,-7.4593,-7.4761,-7.5015,-7.5149,-7.5199,-7.5466,-7.5561,-7.5832,-7.591,-7.6095,-7.6454,-7.6615,-7.6743,-7.6974,-7.7017,-7.7037,-7.7101,-7.7249,-7.727,-7.729,-7.737,-7.7397,-7.7058,-7.7058,-7.7058,0,-7.4046,-7.4248,-7.437,-7.471,-7.4875,-7.5085,-7.5092,-7.5312,-7.5468,-7.5565,-7.583,-7.5963,-7.6192,-7.6463,-7.6591,-7.6575,-7.6968,-7.6875,-7.6881,-7.6896,-7.7048,-7.7073,-7.7096,-7.6793,-7.6791,-7.679,0,0,-7.4018,-7.4229,-7.4496,-7.4723,-7.4822,-7.5023,-7.5151,-7.5243,-7.5452,-7.5534,-7.5705,-7.5901,-7.6112,-7.6246,-7.6453,-7.6726,-7.6783,-7.6835,-7.6848,-7.6858,-7.6877,-7.7031,-7.7057,-7.6784,-7.6784,-7.6783,0,0,-7.4002,-7.4324,-7.4368,-7.4656,-7.4855,-7.5127,-7.5256,-7.5314,-7.552,-7.5514,-7.5671,-7.573,-7.5987,-7.6112,-7.601,-7.6439,-7.6396,-7.6424,-7.6347,-7.6365,-7.6378,-7.6339,-7.6035,0,0,0,0,0,-7.4095,-7.4285,-7.4322,-7.4398,-7.4823,-7.5108,-7.5163,-7.5301,-7.5269,-7.5369,-7.5522,-7.5561,-7.609,-7.6004,-7.6072,-7.6182,-7.6704,-7.6718,-7.6732,-7.6698,-7.6715,-7.673,0,0,0,0,0,0,-7.4126,-7.4218,-7.4318,-7.4595,-7.4693,-7.5103,-7.5078,-7.5121,-7.5262,-7.5266,-7.5531,-7.5569,-7.5687,-7.5978,-7.6038,-7.6139,-7.6015,-7.671,-7.6722,-7.6733,-7.6704,-7.6718,-7.673,0,0,0,0,0,-7.4151,-7.4226,-7.4872,-7.4594,-7.4678,-7.4909,-7.5072,-7.5108,-7.5218,-7.5454,-7.5494,-7.531,-7.5687,-7.5746,-7.6014,-7.6108,-7.5975,-7.5997,-7.6718,-7.6727,-7.6735,-7.6711,0,0,0,0,0,0,-7.417,-7.4258,-7.4892,-7.4923,-7.4533,-7.4888,-7.4949,-7.5096,-7.54,-7.5442,-7.524,-7.524,-7.5689,-7.5735,-7.578,-7.609,-7.5942,-7.5964,-7.5978,-7.6725,-7.6732,-7.6739,0,0,0,0,0,0,-7.4219,-7.4283,-7.4908,-7.4823,-7.4845,-7.4868,-7.4923,-7.5168,-7.5402,-7.5169,-7.5178,-7.5236,-7.5617,-7.5727,-7.5763,-7.614,-7.5916,-7.5938,-7.5952,-7.5962,-7.6731,-7.6737,0,0,0,0,0,0,-7.4248,-7.4304,-7.4816,-7.4833,-7.4852,-7.5205,-7.5087,-7.5512,-7.5336,-7.5153,-7.5324,-7.5318,-7.5609,-7.5648,-7.5751,-7.6112,-7.6133,-7.5917,-7.5932,-7.5942,-7.5949,0,0,0,0,0,0,0,-7.4272,-7.3871,-7.4712,-7.4841,-7.4858,-7.5205,-7.5214,-7.5222,-7.5335,-7.533,-7.5325,-7.532,-7.5795,-7.5818,-7.5842,-7.6089,0,0,-7.5915,-7.5925,0,0,0,0,0,0,0,0,-7.3851,-7.3866,-7.4713,-7.4719,-7.4725,-7.5207,-7.5213,-7.522,-7.5334,-7.533,-7.5326,-7.5322,-7.5801,-7.582,-7.5839,0,0,0,0,0,0,0,0,0,0,0,0,0,0,0,-7.4713,-7.4719,0,-7.5208,-7.5213,-7.5219,-7.5334,-7.533,-7.5327,-7.5324,-7.5807,-7.5822,-7.5838,0,0,0,0,0,0,0,0,0,0,0,0,0,0,0,0,0,0,0,0,0,0,0,0,0,0,0,0,0,0,0,0,0,0,0,0,0,0,0,0,0,0,0,0,0,0,0,0,0,0,0,0,0,0,0,0,0,0,0,0,0,0,0,0,0,0,0,0,0]}],[{"header":{"parameterUnit":"kt","parameterCategory":2,"dx":1,"dy":1,"la1":30.253999710083008,"la2":30.299108505249023,"lo1":-89.0895004272461,"lo2":-89.04439544677734,"nx":28,"ny":28,"refTime":"2022-10-23T21:00:00:Z","depth":0,"parameterNumber":2,"parameterNumberName":"V-component_of_WINDS"},"data":[5.9359,5.9644,5.9729,6.0095,6.0232,6.0497,6.0618,6.0785,6.0938,6.1265,6.1467,6.158,6.1765,6.2027,6.225,6.2295,6.2384,6.2429,6.2474,6.2198,6.2166,6.2134,6.2072,6.2447,6.2448,6.2747,6.2749,6.2752,5.9166,5.9305,5.9521,5.9787,5.9974,5.9985,6.0197,6.0352,6.0588,6.0777,6.0979,6.1272,6.1513,6.1683,6.1929,6.2067,6.2083,6.2127,6.2118,6.2147,6.1856,6.1789,6.2111,6.2111,6.2111,6.2111,6.2111,6.211,5.8839,5.9005,5.9213,5.9448,5.9603,5.9781,5.9954,6.0087,6.0298,6.0562,6.0617,6.0884,6.1087,6.1418,6.1548,6.1759,6.1723,6.1795,6.1814,6.1831,6.1841,6.1408,6.1804,6.1803,6.1802,6.1802,6.1801,0,5.8623,5.8682,5.889,5.9127,5.9302,5.9492,5.9679,5.9788,5.9932,6.01,6.035,6.0508,6.0818,6.1062,6.1306,6.1425,6.1447,6.1456,6.1507,6.1485,6.1439,6.147,6.0995,6.1441,6.1439,6.1437,6.1435,6.1434,5.83,5.8481,5.8734,5.8871,5.8991,5.9209,5.9355,5.9468,5.9618,5.9864,6.0004,6.0249,6.045,6.0834,6.0979,6.121,6.1221,6.1384,6.1254,6.1231,6.1227,6.1215,6.1237,6.1405,6.1409,6.1412,6.1414,0,5.8112,5.824,5.8545,5.8775,5.8839,5.9023,5.922,5.9389,5.9495,5.9743,5.9807,5.9972,6.0212,6.0333,6.0628,6.0683,6.0997,6.1001,6.0932,6.0939,6.1099,6.1083,6.1591,6.1666,6.1276,6.1279,6.1282,0,5.7885,5.8117,5.8295,5.8464,5.8729,5.8832,5.9091,5.9206,5.9377,5.9573,5.9615,5.9798,5.992,6.0121,6.0201,6.0478,6.0532,6.059,6.0609,6.0587,6.0579,6.0663,6.0645,6.0638,6.0636,6.0633,6.0631,0,5.7575,5.7938,5.8215,5.8318,5.8581,5.8709,5.8824,5.9013,5.9153,5.9353,5.9445,5.967,5.9792,5.9967,6.0067,5.9976,6.0406,6.03,6.0465,6.0463,6.055,6.0543,6.0967,6.0628,6.0627,6.0626,6.0625,0,5.7408,5.7607,5.7988,5.8209,5.8299,5.848,5.8708,5.889,5.9086,5.9148,5.9305,5.9343,5.959,5.9479,5.9822,5.9675,5.9795,5.9872,5.9886,5.9912,5.9783,6.0007,6.0399,6.0445,5.9944,5.9939,5.9934,0,5.7021,5.7435,5.7524,5.7882,5.8089,5.8123,5.8326,5.8495,5.8594,5.8785,5.8894,5.9108,5.9049,5.9131,5.9286,5.9405,5.9596,5.9383,5.9658,5.9667,5.9607,5.997,5.9997,6.0301,5.9862,5.987,5.9875,0,5.6733,5.7045,5.7101,5.7223,5.746,5.7631,5.7863,5.8098,5.822,5.8402,5.86,5.8901,5.8871,5.9003,5.9055,5.921,5.947,5.9153,5.9159,5.9208,5.9833,5.9861,5.9912,5.9472,5.9481,5.9488,5.9818,0,5.646,5.6678,5.6836,5.7093,5.7243,5.7469,5.759,5.7732,5.7769,5.7864,5.8155,5.8316,5.8549,5.8634,5.8666,5.8981,5.8946,5.8907,5.8802,5.9038,5.915,5.9195,5.8627,5.8624,5.8622,5.8621,0,0,5.6057,5.6371,5.6454,5.6679,5.681,5.6835,5.7067,5.7197,5.7455,5.7546,5.749,5.7935,5.8065,5.8404,5.8487,5.8579,5.8647,5.8555,5.8924,5.8957,5.8989,5.9107,5.9152,5.8617,5.8616,5.8616,5.8615,0,5.5979,5.6114,5.634,5.6479,5.6686,5.6774,5.683,5.7036,5.7107,5.7387,5.74,5.7586,5.7932,5.8073,5.8189,5.8521,5.8516,5.8582,5.8723,5.89,5.8936,5.8968,5.909,5.9133,5.861,5.861,5.861,0,5.5719,5.5872,5.5991,5.6285,5.6418,5.6626,5.655,5.6769,5.6925,5.6931,5.7208,5.7311,5.7504,5.7806,5.7944,5.7896,5.8392,5.8252,5.8268,5.8284,5.846,5.8503,5.8541,5.8035,5.8033,5.803,0,0,5.5635,5.5835,5.6028,5.6276,5.636,5.6492,5.6612,5.6657,5.683,5.6899,5.703,5.7197,5.7401,5.7532,5.7727,5.804,5.8089,5.8176,5.8203,5.8225,5.8253,5.8435,5.8477,5.8021,5.8021,5.8021,0,0,5.5593,5.5826,5.583,5.6133,5.6299,5.6502,5.665,5.6659,5.6845,5.6831,5.6914,5.6962,5.7245,5.7343,5.7206,5.7691,5.7586,5.7621,5.7616,5.7651,5.7678,5.7647,5.7143,0,0,0,0,0,5.5571,5.5798,5.5799,5.5867,5.6233,5.6502,5.655,5.6624,5.6551,5.6668,5.678,5.6765,5.7288,5.717,5.7234,5.7384,5.7902,5.7923,5.7943,5.8011,5.8047,5.8078,0,0,0,0,0,0,5.5598,5.568,5.5794,5.6004,5.6087,5.6495,5.6387,5.6414,5.6541,5.6535,5.6744,5.6771,5.6838,5.7141,5.7199,5.7339,5.7123,5.791,5.7928,5.7944,5.8023,5.8053,5.8078,0,0,0,0,0,5.562,5.5686,5.6253,5.6002,5.6074,5.6229,5.6379,5.6401,5.6499,5.6669,5.6695,5.6544,5.684,5.6893,5.7175,5.7311,5.7084,5.7105,5.7922,5.7936,5.7948,5.8038,0,0,0,0,0,0,5.5636,5.5708,5.6269,5.6294,5.5919,5.6208,5.6255,5.6389,5.6627,5.6656,5.6471,5.6464,5.6844,5.6885,5.6926,5.7298,5.7052,5.7074,5.7087,5.7932,5.7943,5.7953,0,0,0,0,0,0,5.5673,5.5729,5.6281,5.6173,5.6186,5.6188,5.623,5.6477,5.6629,5.6416,5.6417,5.6465,5.6781,5.688,5.6912,5.7295,5.7027,5.7048,5.7062,5.7071,5.7941,5.795,0,0,0,0,0,0,5.5698,5.5746,5.6167,5.6177,5.6188,5.6472,5.6407,5.6776,5.6539,5.6405,5.6519,5.6511,5.6777,5.6811,5.6903,5.7272,5.7289,5.7028,5.7042,5.7052,5.7059,0,0,0,0,0,0,0,5.5718,5.5377,5.6122,5.6181,5.619,5.6523,5.653,5.6536,5.6537,5.6529,5.6522,5.6514,5.691,5.6932,5.6955,5.7253,0,0,5.7026,5.7036,0,0,0,0,0,0,0,0,5.5359,5.5373,5.6123,5.6128,5.6133,5.6524,5.6529,5.6535,5.6536,5.6529,5.6523,5.6517,5.6916,5.6934,5.6953,0,0,0,0,0,0,0,0,0,0,0,0,0,0,0,5.6123,5.6128,0,5.6525,5.6529,5.6534,5.6535,5.653,5.6524,5.652,5.6921,5.6936,5.6951,0,0,0,0,0,0,0,0,0,0,0,0,0,0,0,0,0,0,0,0,0,0,0,0,0,0,0,0,0,0,0,0,0,0,0,0,0,0,0,0,0,0,0,0,0,0,0,0,0,0,0,0,0,0,0,0,0,0,0,0,0,0,0,0,0,0,0,0,0]}]]]